Flag for Romania Weather past 2 weeks in Cluj-Napoca, Romania

Now
64 °F

Passing clouds.


Feels Like: 64 °F
Forecast: 57 / 76 °F
Wind: 5 mph from West

Location: Cluj Airport-Napoca

Current Time: Jun 30, 2015 at 8:16:58 AM

Latest Report: Jun 30, 2015 at 8:00 AM


Visibility: N/A

Pressure: 30.09 "Hg

Humidity: 83%

Dew point: 59 °F

Location of Cluj-NapocaLocation

Historic Weather in Cluj-Napoca — Graph

°F

Cluj-Napoca temperature yesterday

Maximum temperature yesterday: 77 °F (at 3:30 PM)
Minimum temperature yesterday: 59 °F (at 6:00 AM)
Average temperature yesterday: 70 °F

Past Weeks' High & Low Weather Summary

 TemperatureHumidityPressure
High81 °F (Jun 15, 2:00 PM)100% (Jun 16, 1:00 AM)30.12 "Hg (Jun 16, 1:00 AM)
Low48 °F (Jun 23, 5:00 AM)33% (Jun 19, 3:30 PM)29.80 "Hg (Jun 19, 4:00 PM)
Average64 °F77%29.96 "Hg
* Reported Jun 15 7:30 AM — Jun 30 7:00 AM, Cluj-Napoca, Weather by CustomWeather, © 2015

Note: Actual official high and low records may vary slightly from our data, if they occured in-between our weather recording intervals... More about our weather records

Advertising

Cluj-Napoca weather history for previous 24 hours

 ConditionsComfort  
Time TempWeatherWind HumidityBarometerVisibility
7:00 AM
Tue, Jun 30
63 °FPassing clouds.7 mph88%30.09 "HgN/A
6:30 AM63 °FClear.5 mph88%30.07 "Hg10 mi
6:00 AM63 °FClear.8 mph88%30.07 "Hg10 mi
5:30 AM63 °FClear.9 mph83%30.07 "Hg10 mi
5:00 AM61 °FClear.6 mph88%30.07 "Hg10 mi
4:00 AM63 °FClear.8 mph83%30.09 "Hg10 mi
3:00 AM64 °FClear.7 mph78%30.09 "Hg10 mi
2:00 AM64 °FClear.8 mph78%30.09 "Hg10 mi
1:00 AM64 °FClear.6 mph83%30.09 "Hg10 mi
12:00 AM66 °FClear.8 mph78%30.09 "Hg10 mi
11:30 PM
Mon, Jun 29
66 °FClear.7 mph78%30.09 "Hg10 mi
11:00 PM68 °FClear.9 mph73%30.09 "Hg10 mi
10:30 PM68 °FClear.9 mph73%30.09 "Hg10 mi
10:00 PM68 °FPassing clouds.9 mph73%30.09 "HgN/A
9:30 PM70 °FSunny.12 mph64%30.07 "Hg10 mi
9:00 PM70 °FPassing clouds.9 mph60%30.07 "HgN/A
8:30 PM72 °FPassing clouds.8 mph57%30.07 "HgN/A
8:00 PM75 °FPassing clouds.8 mph47%30.04 "HgN/A
7:30 PM75 °FPassing clouds.8 mph44%30.04 "HgN/A
7:00 PM75 °FPassing clouds.9 mph44%30.04 "HgN/A
6:30 PM75 °FPassing clouds.9 mph44%30.04 "HgN/A
6:00 PM77 °FPassing clouds.7 mph39%30.04 "HgN/A
5:30 PM77 °FPassing clouds.7 mph39%30.04 "HgN/A
5:00 PM77 °FPassing clouds.7 mph39%30.07 "HgN/A
4:30 PM75 °FScattered clouds.7 mph41%30.07 "HgN/A
4:00 PM77 °FScattered clouds.8 mph39%30.07 "HgN/A
3:30 PM77 °FScattered clouds.6 mph36%30.07 "HgN/A
3:00 PM75 °FScattered clouds.6 mph39%30.07 "HgN/A
2:30 PM73 °FScattered clouds.9 mph44%30.07 "HgN/A
2:00 PM75 °FScattered clouds.5 mph41%30.09 "HgN/A
1:30 PM73 °FScattered clouds.7 mph41%30.09 "HgN/A
1:00 PM75 °FScattered clouds.6 mph41%30.09 "HgN/A
12:30 PM73 °FScattered clouds.6 mph44%30.09 "HgN/A
12:00 PM73 °FPassing clouds.6 mph44%30.09 "HgN/A
11:30 AM72 °FPassing clouds.6 mph50%30.09 "HgN/A
11:00 AM70 °FPassing clouds.3 mph50%30.09 "HgN/A
10:30 AM72 °FPassing clouds.1 mph53%30.09 "HgN/A
10:00 AM70 °FPassing clouds.1 mph57%30.09 "HgN/A
9:30 AM68 °FPassing clouds.1 mph64%30.09 "HgN/A
9:00 AM66 °FPassing clouds.3 mph68%30.09 "HgN/A
8:30 AM64 °FPassing clouds.6 mph83%30.09 "HgN/A
8:00 AM63 °FSunny.5 mph88%30.07 "Hg10 mi
Weather by CustomWeather, © 2015

See weather overviewHow to use our weather pages